Home > Weather > Dallas > Past weeks

Flag for U.S.A. Weather for the Past 2 Weeks in Dallas, Texas, U.S.A.

Now
69 °F

Sunny.


Feels Like: 69 °F
Forecast: 45 / 69 °F
Wind: 8 mph from East

Location: Dallas Love Field

Current Time: Feb 12, 2016 at 5:23:44 PM

Latest Report: Feb 12, 2016 at 3:53 PM


Visibility: 10 mi

Pressure: 30.24 "Hg

Humidity: 29%

Dew point: 35 °F

Location of DallasLocation

Historic Weather in Dallas — Graph

°F

Dallas Temperature Yesterday

Maximum temperature yesterday: 75 °F (at 3:53 PM)
Minimum temperature yesterday: 46 °F (at 6:53 AM)
Average temperature yesterday: 61 °F

High & Low Weather Summary for the Past Weeks

 TemperatureHumidityPressure
High76 °F (Jan 29, 2:53 PM)90% (Feb 6, 6:53 AM)30.51 "Hg (Feb 6, 6:53 AM)
Low32 °F (Feb 4, 5:53 AM)13% (Feb 8, 4:53 PM)29.51 "Hg (Feb 1, 5:53 PM)
Average53 °F47%30.09 "Hg
* Reported Jan 28 3:53 PM — Feb 12 3:53 PM, Dallas, Weather by CustomWeather, © 2016

Note: Actual official high and low records may vary slightly from our data, if they occured in-between our weather recording intervals... More about our weather records

Advertising

Dallas Weather History for the Previous 24 Hours

 ConditionsComfort  
Time TempWeatherWind HumidityBarometerVisibility
3:53 PM
Fri, Feb 12
69 °FSunny.8 mph29%30.24 "Hg10 mi
2:53 PM69 °FSunny.3 mph29%30.25 "Hg10 mi
1:53 PM69 °FSunny.12 mph26%30.25 "Hg10 mi
12:53 PM67 °FSunny.12 mph29%30.28 "Hg10 mi
11:53 AM65 °FSunny.6 mph33%30.29 "Hg9 mi
10:53 AM60 °FPassing clouds.6 mph41%30.29 "Hg10 mi
9:53 AM54 °FPassing clouds.5 mph51%30.28 "Hg10 mi
8:53 AM49 °FPassing clouds.5 mph59%30.26 "Hg10 mi
7:53 AM46 °FPassing clouds.6 mph66%30.23 "Hg10 mi
6:53 AM47 °FPassing clouds.5 mph66%30.21 "Hg10 mi
5:53 AM45 °FClear.6 mph71%30.18 "Hg10 mi
4:53 AM48 °FClear.5 mph63%30.15 "Hg10 mi
3:53 AM50 °FClear.5 mph59%30.13 "Hg10 mi
2:53 AM51 °FClear.6 mph54%30.13 "Hg10 mi
1:53 AM51 °FClear.No wind56%30.13 "Hg10 mi
12:53 AM55 °FClear.3 mph44%30.11 "Hg10 mi
11:53 PM
Thu, Feb 11
57 °FClear.3 mph42%30.11 "Hg10 mi
10:53 PM57 °FPassing clouds.No wind46%30.10 "Hg10 mi
9:53 PM57 °FPassing clouds.6 mph47%30.10 "Hg10 mi
8:53 PM58 °FPassing clouds.3 mph47%30.10 "Hg10 mi
7:53 PM59 °FPassing clouds.3 mph44%30.09 "Hg10 mi
6:53 PM67 °FPassing clouds.No wind27%30.07 "Hg10 mi
5:53 PM71 °FPassing clouds.6 mph24%30.06 "Hg10 mi
Weather by CustomWeather, © 2016

See weather overviewHow to use our weather pages